Hourly Data Report for September 02, 2016

All times are specified in Local Standard Time (LST). Add 1 hour to adjust for Daylight Saving Time where and when it is observed.

CHARLOTTETOWN A
PRINCE EDWARD ISLAND

46°17'21.000" N
63°07'09.000" W
48.50 m
8300301
71706
YYG

Download Data

Hourly Data (September 2016)
Hourly Data Report for September 2, 2016
Temp Definition
°C
Dew Point Temp Definition
°C
Rel Hum Definition
%
Wind Dir Definition
10's deg

Wind Spd Definition
km/h
Visibility Definition
km
Stn Press Definition
kPa
Hmdx Definition


Wind Chill Definition


Weather Definition


TIME
00:00 Legend Double Dagger 17.5 17.0 97 26 5 24.1 100.30     LegendNANA
01:00 Legend Double Dagger 17.4 16.9 97 25 10 24.1 100.30     LegendNANA
02:00 Legend Double Dagger 16.4 15.8 96 24 8 24.1 100.26     Cloudy
03:00 Legend Double Dagger 16.3 15.7 96 25 8 24.1 100.22     LegendNANA
04:00 Legend Double Dagger 16.3 15.8 97 35 11 24.1 100.23     LegendNANA
05:00 Legend Double Dagger 15.5 14.7 95 1 33 24.1 100.33     Rain
06:00 Legend Double Dagger 14.8 13.7 93 2 33 24.1 100.43     Rain Showers
07:00 Legend Double Dagger 14.8 13.5 92 1 28 24.1 100.54     Rain Showers
08:00 Legend Double Dagger 14.5 12.9 90 1 28 19.3 100.61     Rain Showers
09:00 Legend Double Dagger 14.4 12.6 89 2 32 19.3 100.72     Rain Showers
10:00 Legend Double Dagger 15.3 13.0 86 2 28 19.3 100.72     Rain Showers
11:00 Legend Double Dagger 15.4 12.7 84 2 37 24.1 100.76     Rain Showers
12:00 Legend Double Dagger 15.1 12.3 83 36 22 12.9 100.83     Rain Showers
13:00 Legend Double Dagger 15.1 11.3 78 2 32 24.1 100.89     LegendNANA
14:00 Legend Double Dagger 16.6 10.7 68 1 32 24.1 100.92     Mostly Cloudy
15:00 Legend Double Dagger 16.6 9.8 64 1 27 24.1 100.98     LegendNANA
16:00 Legend Double Dagger 16.1 9.6 65 1 26 24.1 101.04     LegendNANA
17:00 Legend Double Dagger 15.6 10.0 69 1 22 24.1 101.10     Mainly Clear
18:00 Legend Double Dagger 14.6 8.6 67 1 18 24.1 101.11     LegendNANA
19:00 Legend Double Dagger 12.4 8.5 77 34 8 24.1 101.12     LegendNANA
20:00 Legend Double Dagger 11.3 8.7 84 34 7 24.1 101.16     Clear
21:00 Legend Double Dagger 11.5 9.6 88 31 8 24.1 101.19     LegendNANA
22:00 Legend Double Dagger 10.6 9.7 94 31 5 24.1 101.18     LegendNANA
23:00 Legend Double Dagger 12.7 10.4 86 30 8 24.1 101.20     Mostly Cloudy

Notes on Data Quality.

Legend

  • E = Estimated
  • M = Missing
  • NA = Not Available
  • ‡ = Partner data that is not subject to review by the National Climate Archives
Date modified: